This is the latest recevied weather packets stored in our database for station/object KY4LEX. If no packets are shown the sender has not sent any weather packets the latest 10 day(s).
| Time | Temp. | Humidity | Pressure | Rain* | Wind** | Luminosity | Snow |
|---|---|---|---|---|---|---|---|
| 1777837270 | 17.78° C | 30% | 1023.1 hPa | 0 mm | - | 580 W/m² | - |
| 1777836967 | 17.78° C | 29% | 1023.1 hPa | 0 mm | - | 591 W/m² | - |
| 1777836662 | 18.33° C | 28% | 1023.3 hPa | 0 mm | - | 600 W/m² | - |
| 1777836358 | 17.78° C | 32% | 1023.4 hPa | 0 mm | - | 610 W/m² | - |
| 1777836054 | 17.78° C | 31% | 1023.3 hPa | 0 mm | - | 618 W/m² | - |
| 1777835751 | 17.22° C | 31% | 1023.6 hPa | 0 mm | - | 628 W/m² | - |
| 1777835448 | 17.22° C | 30% | 1023.6 hPa | 0 mm | - | 637 W/m² | - |
| 1777835145 | 16.67° C | 29% | 1023.6 hPa | 0 mm | - | 645 W/m² | - |
| 1777834842 | 16.67° C | 31% | 1023.7 hPa | 0 mm | - | 651 W/m² | - |
| 1777834539 | 17.22° C | 30% | 1023.7 hPa | 0 mm | - | 656 W/m² | - |
| 1777834238 | 17.78° C | 30% | 1024 hPa | 0 mm | - | 663 W/m² | - |
| 1777833935 | 16.67° C | 31% | 1024 hPa | 0 mm | - | 671 W/m² | - |
| 1777833631 | 16.11° C | 29% | 1024.2 hPa | 0 mm | - | 678 W/m² | - |
| 1777833328 | 16.11° C | 32% | 1024 hPa | 0 mm | - | 684 W/m² | - |
| 1777833025 | 16.67° C | 30% | 1024 hPa | 0 mm | - | 690 W/m² | - |
| 1777832723 | 16.67° C | 29% | 1024.2 hPa | 0 mm | - | 694 W/m² | - |
| 1777832421 | 16.67° C | 32% | 1024.3 hPa | 0 mm | - | 674 W/m² | - |
| 1777832118 | 15.56° C | 34% | 1024.3 hPa | 0 mm | - | 700 W/m² | - |
| 1777831814 | 16.67° C | 33% | 1024.4 hPa | 0 mm | - | 705 W/m² | - |
| 1777831512 | 16.67° C | 32% | 1024.4 hPa | 0 mm | - | 709 W/m² | - |
| 1777831208 | 16.67° C | 31% | 1024.5 hPa | 0 mm | - | 712 W/m² | - |
| 1777830906 | 16.11° C | 32% | 1024.5 hPa | 0 mm | - | 716 W/m² | - |
| 1777830602 | 16.67° C | 30% | 1024.6 hPa | 0 mm | - | 715 W/m² | - |
| 1777830301 | 15.56° C | 33% | 1024.6 hPa | 0 mm | - | 718 W/m² | - |
| 1777829996 | 15.56° C | 34% | 1024.8 hPa | 0 mm | - | 720 W/m² | - |
* Rain latest hour (hover to see other rain measurements)
** Current wind speed in m/s (hover to see current wind gust speed)